Terminal Aerodrome Forecast
Issued by NWS Binghamton, NY

Home | Current Version | Previous Version | Text Only | Print | Product List | Glossary On
Versions: 1 2 3 4 5 6 7 8 9 10 11 12 13 14 15 16 17 18
000
FTUS41 KBGM 270533
TAFAVP
TAF
KAVP 270533Z 2706/2806 33006KT P6SM OVC040
     FM271500 32010G18KT P6SM -SHRA BKN050
     FM280300 33006KT P6SM OVC050=

USA.gov is the U.S. government's official web portal to all federal, state and local government web resources and services.